Probability
0 1 3 6 7 3 0 0 0 0 0 0 0 0 0 0 0 1 2 1 0 0 0 0 0 0 0 0 0 0 0 0 0 0 0 0 0 0 0 0 0 0 0 0 0 0 0 0 0
0 1 2 3 3 1 0 0 0 0 0 0 0 0 0 0 0 1 1 1 0 0 0 0 0 0 0 0 0 0 0 0 0 0 0 0 0 0 0 0 0 0 0 0 0 0 0 0 0
0 0 1 1 0 0 0 0 0 0 0 0 1 1 1 0 0 0 0 0 0 0 0 0 0 0 0 0 0 0 0 0 0 0 0 0 0 0 0 0 0 0 0 0 0 0 0 0 0
0 0 0 0 0 0 0 0 0 0 0 0 1 2 2 1 1 1 1 0 0 0 1 1 1 1 0 0 0 0 0 0 0 0 0 0 0 0 0 0 0 0 0 0 0 0 0 0 0
0 0 0 0 0 0 0 0 0 0 0 0 0 2 6 8 7 6 3 1 0 0 2 3 3 2 1 0 0 0 0 0 0 0 0 0 0 0 0 0 0 0 0 0 0 0 0 0 0
0 0 0 0 0 0 0 0 0 1 1 1 0 5 16 23 21 15 8 2 1 2 4 5 5 3 2 1 0 0 0 0 0 0 0 0 0 0 0 0 0 0 0 0 0 0 0 0 0
0 0 0 0 0 0 0 0 0 1 2 3 3 10 28 40 37 26 13 6 4 5 6 7 6 4 3 2 1 0 0 0 0 0 0 0 0 0 0 0 0 0 0 0 0 0 0 0 0
0 0 0 0 0 0 0 0 0 0 2 4 6 15 36 53 53 41 26 15 11 9 8 8 7 5 4 2 1 0 0 0 0 0 0 0 0 0 0 0 0 0 0 0 0 0 0 0 0
0 0 0 0 0 0 0 0 0 0 1 5 9 21 45 65 70 61 47 32 23 16 11 9 9 7 5 2 1 0 0 0 0 0 0 0 0 0 0 0 0 0 0 0 0 0 0 0 0
0 0 0 0 0 0 0 0 0 0 1 4 12 30 56 76 82 76 63 48 34 23 15 13 12 10 7 3 2 1 1 0 0 0 0 0 0 0 0 0 0 0 0 0 0 0 0 0 0
0 0 0 0 0 0 0 0 0 0 1 5 16 41 68 83 85 78 67 53 39 28 21 17 15 13 11 9 7 5 4 2 1 1 0 0 0 1 1 0 0 0 0 0 0 0 0 0 0
0 0 0 0 0 0 0 0 0 1 3 7 21 46 70 80 79 72 63 52 42 33 24 18 17 17 17 16 15 11 7 4 3 3 1 0 0 1 1 0 0 0 0 0 0 0 0 0 0
0 0 0 0 0 0 0 0 1 2 5 10 23 44 62 68 67 63 57 50 43 35 26 19 17 20 23 23 21 16 10 6 5 5 4 1 0 1 1 0 0 0 0 0 0 0 0 0 0
0 0 0 0 0 0 0 0 1 3 5 9 19 34 46 51 55 55 52 47 41 35 29 22 18 20 23 23 23 19 12 7 6 6 5 3 1 0 0 0 0 0 0 0 0 0 0 0 0
0 0 0 0 0 0 0 1 2 3 4 6 12 23 33 39 44 47 47 43 38 34 31 25 20 19 20 20 22 22 15 8 6 5 5 3 1 0 0 0 0 0 0 0 0 0 0 0 0
0 0 0 0 0 0 0 1 3 4 3 3 8 17 25 31 34 37 40 40 38 35 32 26 20 18 19 19 23 24 19 11 7 6 5 2 1 0 0 0 0 0 0 0 0 0 0 0 0
0 0 0 0 0 0 0 1 3 4 3 3 9 15 20 26 28 29 34 39 40 36 33 28 22 18 18 21 25 26 22 15 10 8 4 2 1 0 0 0 0 0 0 0 0 0 0 0 0
0 0 0 0 0 0 0 1 3 5 3 4 9 15 19 24 26 26 31 37 38 36 35 33 27 23 23 25 28 26 19 15 12 8 4 2 1 0 0 1 1 0 0 0 0 0 0 0 0
0 0 0 0 0 0 0 1 3 5 3 3 6 12 18 22 25 27 30 33 34 35 35 35 31 29 29 29 27 22 16 15 15 10 6 3 2 1 2 2 3 2 1 1 1 1 0 0 0
0 0 0 0 0 0 0 1 3 5 4 2 3 8 14 20 24 29 32 32 33 35 34 31 30 30 30 27 23 19 16 16 16 13 9 6 4 3 3 3 4 4 3 2 2 2 1 0 0
0 0 0 0 0 0 0 1 2 4 4 2 2 6 12 17 22 27 30 29 30 31 29 25 25 26 25 22 18 15 13 12 11 12 10 7 5 4 3 4 5 6 5 4 4 3 3 2 2
0 0 0 0 0 0 0 0 1 2 3 2 2 6 11 16 19 23 26 26 24 23 21 19 21 21 20 18 14 10 8 7 7 10 10 7 4 4 5 6 7 7 7 7 6 5 6 7 6
0 0 0 0 0 0 0 0 0 1 1 1 2 5 10 15 17 19 22 23 21 18 16 16 17 17 15 14 13 10 8 7 7 9 8 5 4 4 6 8 9 9 9 10 10 9 9 9 9
0 0 0 0 0 0 0 0 0 0 0 0 1 4 8 13 16 17 19 20 19 16 14 14 15 15 13 11 10 9 8 7 7 7 6 4 4 5 6 8 10 11 10 11 12 12 9 9 9
0 0 0 0 0 0 0 0 0 0 0 0 0 2 6 11 15 16 18 17 15 14 13 13 14 14 12 9 7 6 6 5 5 5 6 6 6 6 5 8 12 13 11 10 11 12 10 9 8
0 0 0 0 0 0 0 0 0 0 0 0 0 1 3 8 12 15 17 16 13 13 12 12 13 13 11 8 6 6 5 4 4 6 7 9 8 6 5 7 11 12 11 9 9 11 11 9 8
0 0 0 0 0 0 0 0 0 0 0 0 0 0 2 5 7 11 15 16 15 14 12 11 13 13 10 7 6 5 4 3 5 7 9 9 7 5 4 6 7 9 9 10 10 11 10 9 7
0 0 0 0 0 0 0 0 0 0 0 0 0 0 1 2 4 9 14 16 16 16 13 12 12 12 8 5 4 3 2 2 4 5 6 7 5 3 3 4 5 6 7 10 12 11 9 6 5
0 0 0 0 0 0 0 0 0 0 0 0 1 1 2 4 6 11 15 15 15 15 13 11 10 8 5 4 3 3 2 1 1 2 3 4 4 3 3 3 4 5 6 8 9 8 5 3 3
0 0 0 0 0 0 0 0 0 0 0 1 2 2 3 6 9 13 15 14 13 12 10 9 7 5 3 3 4 4 3 2 1 0 1 2 4 5 3 2 2 4 5 5 6 5 2 1 1
Wind_Speed
9 7 5 5 7 3 10 9 7 7 6 5 4 1 3 4 4 6 9 17 18 19 19 18 16 15 15 14 14 14 14 14 13 13 12 11 11 10 10 9 10 10 10 10 11 11 11 11 11
5 4 6 7 3 7 10 7 7 7 6 5 4 2 2 6 7 8 12 16 19 19 19 17 18 16 15 14 14 14 14 13 13 12 11 11 10 10 10 10 10 10 11 11 11 11 12 11 11
5 6 6 5 2 7 9 6 6 5 5 3 3 3 4 6 7 8 13 19 19 18 17 18 18 17 16 15 14 14 13 13 12 12 11 10 10 10 10 10 10 11 11 11 12 12 12 12 11
5 6 7 4 6 7 5 4 3 3 4 2 2 5 6 6 5 9 17 19 18 17 17 19 18 17 16 15 14 14 13 13 12 11 11 10 10 10 10 10 11 11 11 12 12 12 12 11 11
6 6 5 4 6 5 3 2 0 1 2 2 1 4 7 6 7 14 18 18 18 17 17 20 18 17 16 15 14 14 13 12 12 11 10 10 10 10 10 11 11 11 11 11 11 11 10 10 10
6 6 3 4 7 4 3 1 1 2 1 2 2 4 7 7 11 16 17 17 16 16 17 18 17 16 16 15 14 13 13 12 11 10 10 10 10 10 10 10 10 10 10 10 10 10 10 10 10
6 4 1 3 4 4 4 3 2 3 2 2 2 3 8 9 12 15 16 15 15 15 15 16 17 16 15 14 13 13 12 12 11 10 10 10 10 10 10 10 10 10 10 10 9 9 9 9 9
6 5 3 3 2 4 4 3 3 5 2 2 4 3 7 13 14 15 15 14 13 13 14 15 15 15 14 14 13 12 12 11 11 10 10 10 10 10 10 10 10 9 9 9 9 8 8 8 8
7 7 2 3 2 4 5 5 3 3 2 4 3 1 8 19 17 16 14 13 13 12 12 13 14 13 12 13 14 13 12 11 11 10 10 10 8 10 9 10 10 9 8 8 8 8 7 8 9
7 6 2 4 4 6 7 6 5 4 6 6 6 6 14 19 18 18 18 17 16 15 14 12 12 13 12 10 11 9 10 10 9 8 9 6 5 5 7 11 9 8 8 8 7 7 7 7 7
6 5 3 3 5 8 9 7 4 7 6 4 7 12 17 19 18 18 18 17 17 16 14 13 12 12 11 8 8 6 5 7 7 8 7 5 5 5 6 6 7 7 8 7 8 8 4 3 3
7 5 5 7 7 9 9 8 6 7 6 3 3 14 18 19 18 17 17 16 15 15 14 13 12 10 9 8 7 7 6 6 6 7 7 6 4 4 4 3 5 5 4 3 3 3 3 3 3
9 7 7 9 10 8 8 8 8 6 3 0 6 14 17 17 16 15 14 14 15 15 14 12 11 11 9 7 6 7 6 6 6 6 6 6 5 4 4 3 3 3 3 4 3 3 3 3 3
5 8 10 10 8 5 8 7 5 3 1 2 8 12 14 15 16 15 15 15 15 14 14 12 12 12 10 7 6 6 6 5 6 6 7 7 5 4 4 5 4 3 3 2 2 3 3 3 2
8 10 10 6 5 3 8 8 3 2 1 4 7 9 12 13 15 15 15 15 15 15 14 14 12 11 11 9 8 6 6 7 6 6 7 7 6 5 4 4 5 4 3 3 3 3 3 3 3
9 11 9 3 2 3 8 5 3 1 2 3 6 8 10 11 13 13 14 13 14 14 14 14 12 13 12 10 9 6 6 6 6 6 6 7 6 6 5 4 4 4 4 4 3 3 3 3 2
11 10 7 3 1 5 7 6 2 0 3 4 6 8 9 10 11 12 13 13 13 14 15 15 13 14 13 11 9 7 6 6 5 5 6 7 7 7 6 4 3 5 4 4 4 4 3 3 2
6 7 6 5 2 7 8 6 2 1 3 4 5 7 9 10 11 11 12 12 13 14 14 15 14 14 13 10 8 6 6 6 6 6 6 7 7 8 7 5 5 6 4 4 3 2 2 2 3
7 8 9 6 5 8 8 6 3 2 4 4 5 6 8 8 9 10 11 12 12 13 14 15 14 13 11 8 8 8 8 7 7 7 8 8 7 8 7 5 6 6 5 4 5 4 5 4 3
10 11 10 6 3 7 8 8 2 2 3 3 4 6 7 8 8 10 11 12 13 14 14 14 14 14 13 9 7 6 6 6 7 6 7 8 8 8 8 7 6 6 4 5 5 5 4 3 4
12 11 9 7 7 7 8 9 4 3 3 3 4 4 5 7 8 9 11 12 12 13 14 13 14 13 13 11 8 6 5 5 6 7 7 8 8 9 7 7 7 5 6 6 6 6 6 5 4
11 8 8 8 9 5 4 8 3 2 4 4 4 5 5 6 7 9 10 11 12 12 12 13 12 12 12 12 11 11 9 9 9 8 6 7 8 8 8 7 7 6 6 5 7 7 5 5 5
9 4 6 8 8 9 7 9 4 2 3 2 4 4 5 6 6 7 9 10 10 11 11 11 11 12 12 12 12 12 10 9 7 7 8 7 7 8 8 7 6 6 6 6 6 5 6 5 6
7 6 6 8 9 11 6 7 6 1 2 0 3 4 4 5 6 6 7 8 9 9 9 10 11 11 12 12 13 13 13 11 10 10 9 8 6 6 8 8 7 7 6 6 6 6 7 6 5
11 10 8 9 9 7 3 6 4 2 1 1 1 3 4 6 6 7 8 9 9 9 9 9 10 11 12 12 12 13 12 12 12 11 9 8 6 6 8 8 7 6 6 7 6 6 6 6 6
14 14 10 7 6 4 6 6 1 2 1 1 2 3 5 6 7 7 7 7 8 8 9 9 9 9 10 11 11 10 11 9 8 10 8 8 6 6 7 8 7 8 8 8 6 6 6 5 6
12 13 12 10 8 7 4 4 3 4 4 4 4 5 6 6 7 7 7 7 6 7 7 7 8 8 9 10 10 9 10 9 8 8 8 7 5 5 7 8 8 8 8 7 7 5 6 5 6
11 10 8 10 8 9 6 6 3 4 5 6 5 5 6 7 7 7 6 6 6 5 6 6 7 7 7 8 8 8 9 9 8 7 7 6 6 6 7 8 8 7 7 7 7 6 6 5 5
11 11 10 9 8 8 5 2 4 2 3 5 6 6 6 7 7 7 6 6 6 6 6 6 6 6 6 7 8 8 8 8 8 7 6 6 6 7 7 7 7 7 7 7 7 6 6 7 6
12 13 12 10 9 8 8 1 7 3 4 4 5 5 6 6 7 7 7 6 6 6 6 6 6 6 6 6 7 7 6 7 6 6 6 6 6 6 6 6 6 7 6 6 7 7 6 6 6
Wind_Direction
204 213 235 244 236 122 74 72 65 69 71 71 99 81 28 31 10 59 115 144 142 144 142 149 148 144 141 137 135 134 133 130 128 127 126 124 121 120 119 117 115 111 109 109 108 108 108 109 111
204 223 241 243 249 90 80 69 65 56 71 99 114 105 66 66 54 100 136 143 148 146 146 151 147 147 143 140 138 137 136 134 131 130 128 125 123 120 118 116 115 112 110 108 108 107 107 108 110
216 242 265 253 73 67 73 69 70 85 113 126 109 62 42 62 97 128 140 149 151 146 146 142 150 149 146 144 142 139 137 136 134 132 130 127 124 119 117 114 112 111 111 110 108 107 105 106 108
238 232 237 240 92 72 50 57 80 129 140 128 127 102 84 62 106 133 144 155 151 147 149 143 154 150 149 148 146 143 141 139 136 133 132 128 124 122 118 114 112 111 111 109 108 107 106 106 107
245 259 231 134 89 76 50 23 292 216 132 139 173 105 98 92 116 137 151 156 153 153 149 145 154 152 151 151 149 146 144 142 138 135 133 129 126 122 118 116 114 113 112 111 110 109 108 109 110
249 248 222 107 93 77 60 17 233 271 194 155 181 128 99 120 137 148 155 159 156 154 148 143 154 155 155 155 153 150 147 144 141 139 134 130 125 123 120 119 117 117 116 113 110 108 107 109 111
278 273 103 91 94 90 46 11 304 293 251 200 193 143 123 143 145 153 157 159 157 157 149 151 159 159 159 158 156 155 151 146 143 141 136 132 129 127 126 124 121 119 119 117 113 109 108 107 112
285 267 184 128 88 71 39 345 332 306 324 119 197 200 145 153 152 153 156 160 159 162 158 158 164 161 164 162 160 158 153 150 146 144 141 137 136 134 134 139 125 125 124 121 118 114 113 113 116
262 249 171 82 26 23 3 331 331 291 219 181 200 355 116 143 152 154 158 161 164 169 168 168 164 163 168 164 156 163 159 155 156 155 149 162 161 146 155 122 130 133 130 124 121 122 126 135 130
249 251 73 22 344 332 328 315 305 248 226 200 165 129 132 148 159 164 167 170 173 174 175 172 168 166 170 164 158 168 170 162 179 159 161 167 143 142 128 123 139 139 136 136 126 131 163 196 144
246 276 347 313 318 317 309 305 279 266 263 231 195 164 156 161 168 173 174 176 176 175 176 175 172 171 171 167 165 167 169 163 173 161 161 154 155 151 144 147 150 155 165 161 148 179 174 144 108
251 264 284 295 309 301 303 302 288 271 299 356 188 162 166 172 176 178 178 178 177 177 179 178 170 169 175 175 168 168 170 170 169 159 172 163 167 162 145 155 156 167 165 151 168 159 136 125 132
243 269 285 289 292 297 291 283 286 281 303 337 151 163 174 177 180 181 178 177 177 179 178 177 173 171 174 176 180 174 174 174 167 163 172 177 173 171 157 159 169 180 154 169 179 165 146 156 159
269 276 279 283 289 290 290 282 257 289 350 178 165 173 179 181 180 179 179 180 180 179 177 173 176 173 173 177 184 177 178 178 175 173 172 187 182 169 174 175 181 182 178 170 179 163 167 182 158
268 270 265 253 279 303 295 255 226 5 243 188 175 176 178 183 183 184 184 183 181 180 177 174 174 174 176 183 189 185 185 182 186 174 174 187 193 174 188 183 189 182 167 166 193 178 182 184 178
244 248 242 195 288 304 286 279 80 42 225 194 175 173 179 182 188 188 187 185 183 180 178 179 176 178 182 187 191 189 191 184 189 181 181 190 194 188 199 195 194 174 190 191 184 204 191 178 187
227 237 242 213 242 306 288 292 14 295 222 195 177 175 179 181 190 190 188 186 186 183 181 181 180 180 185 186 187 189 186 190 192 192 192 187 196 195 205 205 182 193 200 201 212 181 203 184 189
233 249 248 258 296 303 285 290 311 239 225 204 182 180 182 187 191 190 189 188 186 183 183 183 182 184 186 184 183 185 191 192 197 200 199 195 200 200 208 203 193 210 203 202 217 182 199 220 209
275 269 267 274 305 296 285 293 296 220 218 209 198 187 189 190 183 183 188 186 183 182 185 186 187 185 183 182 187 188 190 193 198 202 196 200 208 201 210 217 189 214 211 210 206 207 192 210 201
247 255 257 259 280 291 292 287 276 222 232 236 217 200 193 185 180 179 183 185 187 185 187 188 190 188 188 188 190 193 188 191 196 203 195 203 208 208 206 212 212 206 206 208 213 217 226 207 205
238 249 261 280 290 250 277 259 212 197 211 207 211 201 189 185 184 181 185 188 189 190 191 192 194 191 192 186 183 181 178 192 195 200 199 204 209 210 216 208 219 210 216 203 209 211 220 223 209
236 239 256 267 271 263 281 286 264 232 222 198 193 191 187 186 186 183 187 189 191 191 189 193 196 196 193 188 189 189 194 199 200 199 194 196 207 210 210 214 214 215 222 205 213 208 223 228 225
244 244 250 259 261 268 245 271 290 206 252 193 177 181 181 181 184 182 184 186 186 186 186 188 194 197 197 194 194 198 204 206 201 197 191 199 201 207 210 209 212 213 223 215 227 204 229 227 234
214 215 228 242 248 249 253 270 283 355 337 245 168 171 174 173 172 168 167 170 175 180 183 186 190 194 195 198 200 203 205 203 199 199 195 199 199 205 206 209 210 214 219 210 217 218 218 237 242
207 222 221 219 221 235 161 256 285 17 1 316 206 173 171 165 164 161 162 166 172 177 182 189 193 197 196 200 205 207 207 206 204 201 201 202 201 204 201 206 203 210 213 213 214 215 229 221 221
210 225 240 250 242 208 176 247 304 98 128 204 181 151 155 160 156 155 157 162 168 176 182 189 195 198 198 201 206 207 205 206 206 204 206 204 208 207 197 200 202 208 210 210 206 217 215 216 219
213 226 243 258 268 271 235 231 215 173 189 181 160 150 152 152 151 151 152 156 160 173 181 188 189 191 194 198 198 198 202 206 204 198 204 205 206 204 197 197 202 208 209 209 205 219 219 213 219
238 225 222 238 246 248 235 235 232 173 178 173 166 159 148 152 151 151 153 152 154 160 166 178 181 185 190 191 195 191 194 196 197 200 199 200 202 204 196 200 202 201 202 204 207 212 208 213 218
197 213 225 234 251 262 252 203 93 137 157 168 163 156 154 158 153 151 150 146 148 153 160 169 177 181 186 187 189 188 188 190 190 193 193 192 195 190 192 194 195 197 199 199 201 213 202 211 209
209 214 213 227 227 246 272 168 102 122 139 150 142 143 144 148 148 147 147 148 153 158 160 166 174 179 182 181 180 178 180 181 181 183 181 180 182 184 184 185 189 193 194 193 196 204 203 206 209